| time (UTC) | temp F | wind direction | speed MPH | gust MPH | rain 1hr in | rain 24hr in | rain mn in | humidity % | barometer mb |
| 20260904171518 | 95 | 325 | 0.0 | 3.0 | 0.00 | 0.00 | 0.00 | 56 | 1014.5 |
| 20260904170052 | 94 | 131 | 0.0 | 4.0 | 0.00 | 0.00 | 0.00 | 61 | 1014.7 |
| 20260904164534 | 93 | 43 | 1.0 | 3.0 | 0.00 | 0.00 | 0.00 | 59 | 1014.8 |
| 20260904163016 | 93 | 16 | 0.0 | 3.0 | 0.00 | 0.00 | 0.00 | 60 | 1014.8 |
| 20260904161606 | 92 | 344 | 1.0 | 3.0 | 0.00 | 0.00 | 0.00 | 59 | 1014.8 |
| 20260904160040 | 92 | 336 | 1.0 | 3.0 | 0.00 | 0.00 | 0.00 | 61 | 1014.8 |
| 20260904154520 | 92 | 355 | 0.0 | 2.0 | 0.00 | 0.00 | 0.00 | 60 | 1014.8 |
| 20260904153127 | 91 | 38 | 1.0 | 2.0 | 0.00 | 0.00 | 0.00 | 64 | 1014.8 |
| 20260904151534 | 90 | 91 | 2.0 | 4.0 | 0.00 | 0.00 | 0.00 | 65 | 1014.9 |
| 20260904150014 | 89 | 355 | 1.0 | 2.0 | 0.00 | 0.00 | 0.00 | 68 | 1014.8 |
| 20260904144547 | 88 | 92 | 1.0 | 3.0 | 0.00 | 0.00 | 0.00 | 72 | 1014.7 |
| 20260904143031 | 88 | 346 | 0.0 | 0.0 | 0.00 | 0.00 | 0.00 | 71 | 1014.6 |
| 20260904141512 | 86 | 167 | 0.0 | 2.0 | 0.00 | 0.00 | 0.00 | 72 | 1014.5 |
| 20260904140047 | 86 | 92 | 0.0 | 0.0 | 0.00 | 0.00 | 0.00 | 74 | 1014.5 |
| 20260904134526 | 84 | 92 | 0.0 | 0.0 | 0.00 | 0.00 | 0.00 | 76 | 1014.4 |
| 20260904133104 | 82 | 92 | 0.0 | 0.0 | 0.00 | 0.00 | 0.00 | 83 | 1014.5 |
| 20260904133002 | 81 | 92 | 0.0 | 0.0 | 0.00 | 0.00 | 0.00 | 83 | 1014.5 |
| 20260904131539 | 80 | 92 | 0.0 | 0.0 | 0.00 | 0.00 | 0.00 | 84 | 1014.5 |
| 20260904130023 | 78 | 92 | 0.0 | 0.0 | 0.00 | 0.00 | 0.00 | 88 | 1014.3 |
| 20260904124506 | 76 | 92 | 0.0 | 0.0 | 0.00 | 0.00 | 0.00 | 91 | 1014.3 |
| 20260904123041 | 75 | 92 | 0.0 | 0.0 | 0.00 | 0.00 | 0.00 | 92 | 1014.1 |
| 20260904121529 | 74 | 92 | 0.0 | 0.0 | 0.00 | 0.00 | 0.00 | 92 | 1013.7 |
| 20260904120016 | 74 | 92 | 0.0 | 0.0 | 0.00 | 0.00 | 0.00 | 91 | 1013.7 |
| 20260904114553 | 74 | 92 | 0.0 | 0.0 | 0.00 | 0.00 | 0.00 | 91 | 1013.7 |
| 20260904113034 | 75 | 92 | 0.0 | 0.0 | 0.00 | 0.00 | 0.00 | 91 | 1013.8 |
| 20260904111511 | 75 | 92 | 0.0 | 0.0 | 0.00 | 0.00 | 0.00 | 91 | 1013.7 |
| 20260904110051 | 75 | 92 | 0.0 | 0.0 | 0.00 | 0.00 | 0.00 | 90 | 1013.5 |
| 20260904104529 | 75 | 92 | 0.0 | 0.0 | 0.00 | 0.00 | 0.00 | 89 | 1013.5 |
| 20260904103013 | 76 | 92 | 0.0 | 0.0 | 0.00 | 0.00 | 0.00 | 89 | 1013.5 |
| 20260904101554 | 76 | 92 | 0.0 | 0.0 | 0.00 | 0.00 | 0.00 | 89 | 1013.5 |
| 20260904100037 | 76 | 92 | 0.0 | 0.0 | 0.00 | 0.00 | 0.00 | 88 | 1013.3 |
| 20260904094513 | 76 | 92 | 0.0 | 0.0 | 0.00 | 0.00 | 0.00 | 88 | 1013.3 |
| 20260904093058 | 76 | 92 | 0.0 | 0.0 | 0.00 | 0.00 | 0.00 | 88 | 1013.2 |
| 20260904091531 | 77 | 92 | 0.0 | 0.0 | 0.00 | 0.00 | 0.00 | 87 | 1012.9 |
| 20260904090007 | 77 | 92 | 0.0 | 0.0 | 0.00 | 0.00 | 0.00 | 86 | 1012.8 |
| 20260904084547 | 78 | 92 | 0.0 | 0.0 | 0.00 | 0.00 | 0.00 | 85 | 1012.7 |
| 20260904083036 | 78 | 92 | 0.0 | 0.0 | 0.00 | 0.00 | 0.00 | 85 | 1012.8 |
| 20260904081517 | 78 | 92 | 0.0 | 0.0 | 0.00 | 0.00 | 0.00 | 84 | 1012.8 |
| 20260904080057 | 78 | 92 | 0.0 | 0.0 | 0.00 | 0.00 | 0.00 | 83 | 1012.7 |
| 20260904074538 | 79 | 92 | 0.0 | 0.0 | 0.00 | 0.00 | 0.00 | 82 | 1012.7 |
| 20260904073038 | 79 | 92 | 0.0 | 0.0 | 0.00 | 0.00 | 0.00 | 80 | 1012.7 |
| 20260904071502 | 80 | 92 | 0.0 | 0.0 | 0.00 | 0.00 | 0.00 | 80 | 1012.7 |
| 20260904070046 | 80 | 92 | 0.0 | 0.0 | 0.00 | 0.00 | 0.00 | 80 | 1012.7 |
| 20260904064526 | 80 | 92 | 0.0 | 0.0 | 0.00 | 0.00 | 0.00 | 80 | 1012.6 |
| 20260904063003 | 80 | 92 | 0.0 | 0.0 | 0.00 | 0.00 | 0.00 | 79 | 1012.8 |
| 20260904061554 | 81 | 92 | 0.0 | 0.0 | 0.00 | 0.00 | 0.00 | 78 | 1012.8 |
| 20260904060030 | 81 | 92 | 0.0 | 0.0 | 0.00 | 0.00 | 0.00 | 77 | 1012.8 |
| 20260904054513 | 81 | 92 | 0.0 | 0.0 | 0.00 | 0.00 | 0.00 | 76 | 1012.7 |
| 20260904053113 | 81 | 98 | 0.0 | 0.0 | 0.00 | 0.00 | 0.00 | 77 | 1012.7 |
| 20260904051533 | 81 | 98 | 0.0 | 0.0 | 0.00 | 0.00 | 0.00 | 76 | 1012.5 |
| 20260904050013 | 81 | 98 | 0.0 | 0.0 | 0.00 | 0.00 | 0.00 | 75 | 1012.5 |
| 20260904044552 | 82 | 98 | 0.0 | 0.0 | 0.00 | 0.00 | 0.00 | 76 | 1012.5 |
| 20260904043031 | 82 | 98 | 0.0 | 0.0 | 0.00 | 0.00 | 0.00 | 77 | 1012.4 |
| 20260904041514 | 83 | 98 | 0.0 | 0.0 | 0.00 | 0.00 | 0.00 | 75 | 1012.4 |
| 20260904040055 | 83 | 98 | 0.0 | 0.0 | 0.00 | 0.00 | 0.00 | 73 | 1012.3 |
| 20260904040001 | 83 | 98 | 0.0 | 0.0 | 0.00 | 0.00 | 0.00 | 73 | 1012.3 |
| 20260904034540 | 84 | 98 | 0.0 | 0.0 | 0.00 | 0.00 | 0.00 | 71 | 1012.5 |
| 20260904033034 | 85 | 98 | 0.0 | 3.0 | 0.00 | 0.00 | 0.00 | 70 | 1012.5 |
| 20260904031558 | 85 | 89 | 0.0 | 2.0 | 0.00 | 0.00 | 0.00 | 70 | 1012.7 |
| 20260904030040 | 85 | 96 | 0.0 | 2.0 | 0.00 | 0.00 | 0.00 | 70 | 1012.7 |
| 20260904024520 | 86 | 117 | 0.0 | 2.0 | 0.00 | 0.00 | 0.00 | 69 | 1012.7 |
| 20260904023008 | 86 | 103 | 0.0 | 3.0 | 0.00 | 0.00 | 0.00 | 68 | 1012.4 |
| 20260904021544 | 86 | 75 | 0.0 | 2.0 | 0.00 | 0.00 | 0.00 | 68 | 1012.5 |
| 20260904020030 | 87 | 97 | 0.0 | 0.0 | 0.00 | 0.00 | 0.00 | 68 | 1012.3 |
| 20260904014510 | 87 | 101 | 0.0 | 3.0 | 0.00 | 0.00 | 0.00 | 67 | 1012.1 |
| 20260904013054 | 88 | 101 | 1.0 | 2.0 | 0.00 | 0.00 | 0.00 | 66 | 1012.0 |
| 20260904011529 | 88 | 94 | 0.0 | 2.0 | 0.00 | 0.00 | 0.00 | 66 | 1011.9 |
| 20260904010016 | 89 | 106 | 0.0 | 4.0 | 0.00 | 0.00 | 0.00 | 65 | 1011.8 |
| 20260904004601 | 89 | 90 | 1.0 | 3.0 | 0.00 | 0.00 | 0.00 | 64 | 1011.8 |
| 20260904003055 | 90 | 82 | 1.0 | 3.0 | 0.00 | 0.00 | 0.00 | 63 | 1011.7 |
| 20260904001525 | 90 | 101 | 1.0 | 4.0 | 0.00 | 0.00 | 0.00 | 62 | 1011.7 |
| 20260904000010 | 91 | 94 | 0.0 | 3.0 | 0.00 | 0.00 | 0.00 | 62 | 1011.4 |
| 20260903234547 | 92 | 75 | 1.0 | 3.0 | 0.00 | 0.00 | 0.00 | 59 | 1011.4 |
| 20260903233029 | 92 | 100 | 0.0 | 3.0 | 0.00 | 0.00 | 0.00 | 57 | 1011.3 |
| 20260903231510 | 92 | 92 | 1.0 | 4.0 | 0.00 | 0.00 | 0.00 | 57 | 1011.3 |
| 20260903230108 | 92 | 134 | 1.0 | 4.0 | 0.00 | 0.00 | 0.00 | 55 | 1011.4 |
| 20260903230002 | 92 | 88 | 0.0 | 3.0 | 0.00 | 0.00 | 0.00 | 56 | 1011.3 |
| 20260903224556 | 92 | 141 | 1.0 | 2.0 | 0.00 | 0.00 | 0.00 | 55 | 1011.2 |
| 20260903223038 | 93 | 108 | 1.0 | 4.0 | 0.00 | 0.00 | 0.00 | 53 | 1011.2 |
| 20260903221518 | 94 | 62 | 3.0 | 8.0 | 0.00 | 0.00 | 0.00 | 52 | 1011.1 |
| 20260903220105 | 93 | 117 | 1.0 | 3.0 | 0.00 | 0.00 | 0.00 | 52 | 1011.2 |
| 20260903214542 | 93 | 130 | 3.0 | 7.0 | 0.00 | 0.00 | 0.00 | 52 | 1011.4 |
| 20260903213020 | 94 | 91 | 2.0 | 10.0 | 0.00 | 0.00 | 0.00 | 52 | 1011.7 |
| 20260903211555 | 94 | 67 | 2.0 | 9.0 | 0.00 | 0.00 | 0.00 | 51 | 1011.8 |
| 20260903210033 | 94 | 86 | 2.0 | 9.0 | 0.00 | 0.00 | 0.00 | 51 | 1011.7 |
| 20260903204515 | 95 | 142 | 1.0 | 7.0 | 0.00 | 0.00 | 0.00 | 56 | 1012.0 |
| 20260903203057 | 95 | 77 | 1.0 | 7.0 | 0.00 | 0.00 | 0.00 | 52 | 1012.2 |
| 20260903201536 | 95 | 50 | 2.0 | 7.0 | 0.00 | 0.00 | 0.00 | 52 | 1012.4 |
| 20260903200017 | 95 | 138 | 2.0 | 6.0 | 0.00 | 0.00 | 0.00 | 50 | 1012.5 |
| 20260903194601 | 95 | 55 | 1.0 | 6.0 | 0.00 | 0.00 | 0.00 | 52 | 1012.6 |
| 20260903193035 | 95 | 253 | 2.0 | 8.0 | 0.00 | 0.00 | 0.00 | 53 | 1012.7 |
| 20260903191515 | 95 | 96 | 1.0 | 8.0 | 0.00 | 0.00 | 0.00 | 50 | 1013.0 |
| 20260903190054 | 95 | 67 | 3.0 | 8.0 | 0.00 | 0.00 | 0.00 | 52 | 1013.1 |
| 20260903184534 | 94 | 60 | 1.0 | 4.0 | 0.00 | 0.00 | 0.00 | 54 | 1013.2 |
| 20260903183013 | 93 | 85 | 5.0 | 11.0 | 0.00 | 0.00 | 0.00 | 55 | 1013.4 |
| 20260903181604 | 93 | 5 | 2.0 | 8.0 | 0.00 | 0.00 | 0.00 | 57 | 1013.6 |
| 20260903180053 | 93 | 265 | 1.0 | 7.0 | 0.00 | 0.00 | 0.00 | 56 | 1013.8 |
| 20260903174517 | 92 | 175 | 1.0 | 8.0 | 0.00 | 0.00 | 0.00 | 57 | 1014.2 |
| 20260903173104 | 92 | 153 | 3.0 | 7.0 | 0.00 | 0.00 | 0.00 | 57 | 1014.3 |